STARLINK-32957, 63124

Orbit data source: Space-Track

STARLINK-32957, 63124 is a payload satellite owned by SpaceX/Seattle (US) in LEO that was launched on Thu, 27 Feb 2025 UTC via an FALCON 9 launch vehicle from the Air Force Eastern Test Range (AFETR). Payload-class satellites include a variety of spacecraft equipped with specific instruments for various scientific and technological missions. These include communications satellites like Starlink; space stations such as the ISS; scientific satellites like the Hubble; Earth observation satellites from companies like Planet Labs, Umbra, and HawkEye 360; GPS; miniature CubeSats for education and research; and military/defense satellites.

Loading next visibility...
Identifier
63124, 2025-039W
Orbit
LEO
Country
Flag of USUS
Related business
Manufacturer
SpaceX/Seattle
Mission
Operational Commercial Communications
Bus & Motor
STARLINK V2M, Unknown motor
Mass
730 kg wet, ~700 kg dry
Launch date (UTC)
2025-02-27 (11 months ago)
Launch vehicle
FALCON 9
Launch site
Air Force Eastern Test Range (AFETR)
Object type
Payload
Rocket body
Debris
Shape & HBR
Box + 2 Pan, 17.7 m
Radar Cross Section
33.884 m², Large (>1 m²)

Expand to show TLE details & history
Last TLE update: 13 hours ago

TLE from 13 hours ago
0 STARLINK-32957
1 63124U 25039W   26034.94177056  .00029126  00000-0  10635-2 0  9996
2 63124  42.9996 203.5301 0001987 277.9137  82.1489 15.27586430 52901
Epoch: 2026-02-03T22:36Z
TLE epoch observation values (Epoch: 2026-02-03T22:36:08.976Z)
Latitude
-0.00002°
Longitude
90.3772°
Altitude
482.619 km
Speed
7.626 km/s
True Right ascension
13h 34m 07s
True Declination
0° 00' 00"
Sunlit
Object was in full shadow at epoch
Visualization orbit readout
Latitude
Unknown
Longitude
Unknown
Altitude
Unknown
Speed
Unknown
Apparent Right ascension
Unknown
Apparent Declination
Unknown
Sunlit
N/A
Visualization observer readout
Local Sidereal Time
13:59:43
Azimuth
Unknown
Elevation
Unknown
Doppler factor
Unknown
Orbital elements
Apogee altitude
486.339 km
Perigee altitude
483.611 km
Semi-major axis
6,863.112 km
Eccentricity
0.0002
Inclination
42.9996°
RAAN
203.5301°
Arg. of periapsis
277.9137°
True anomaly
82.17146°
Mean anomaly
82.1489°
Eccentric anomaly
82.16018°
Mean motion
3.81735 °/min
Orbital period
94.31 mins
BSTAR
0.0010635
Loading maneuver chart data...
Computing Atmospheric mass density...
Loading historical data...
Loading historical data...
Loading historical data...
Loading historical data...
Loading historical data...
Loading historical data...
Loading historical data...

Documentation

Showing up to 5 results
|